Regional Weather Roundup
Issued by NWS

Home | Current Version | Previous Version | Text Only | Print | Product List | Glossary Off
Versions: 1 2 3 4 5 6 7 8 9 10 11 12 13 14 15 16 17 18 19 20 21 22 23 24 25 26 27 28 29 30 31 32 33 34 35 36 37 38 39 40 41 42 43 44 45 46 47 48 49 50

896
ASUS43 KMKX 042211
RWRWI

WISCONSIN REGIONAL WEATHER ROUNDUP
NATIONAL WEATHER SERVICE MILWAUKEE/SULLIVAN WI
500 PM CDT WED MAY 04 2016

NOTE: "FAIR" INDICATES FEW OR NO CLOUDS BELOW 12,000 FEET WITH NO
SIGNIFICANT WEATHER AND/OR OBSTRUCTIONS TO VISIBILITY.

WIZ001-002-006>008-014>016-023>028-042300-
NORTHWEST WISCONSIN

CITY           SKY/WX    TMP DP  RH WIND       PRES   REMARKS
SUPERIOR ARPT  SUNNY     51  29  42 NE7       29.97S
ASHLAND        SUNNY     56  31  38 N13       29.98S
HAYWARD        SUNNY     59  24  26 NE13      29.94R
SIREN          SUNNY     64  17  16 NE10G22   29.93S
CUMBERLAND     SUNNY     61  16  17 N12       29.93R
RICE LAKE      SUNNY     62  15  15 N14G20    29.94R
CHETEK         SUNNY     62  24  23 N10G18    29.92R
LADYSMITH      SUNNY     59  24  26 N18G29    29.94R
EAU CLAIRE     SUNNY     63  20  19 N13G22    29.90R
MENOMONIE      SUNNY     65  21  18 N14G23    29.91R
NEW RICHMOND   SUNNY     65  19  17 NW16      29.93S
OSCEOLA        SUNNY     65  23  19 N13G20    29.96R
$$

WIZ003>005-009-010-017-018-042300-
NORTH CENTRAL WISCONSIN

CITY           SKY/WX    TMP DP  RH WIND       PRES   REMARKS
MANITOWISH WTR CLOUDY    49  32  52 NE13      29.94R
ARBOR VITAE    MOSUNNY   52  33  48 N15G24    29.93S
WOODRUFF       MOSUNNY   52  33  48 N15G24    29.93S
RHINELANDER    PTSUNNY   49  31  49 N15G23    29.93R
EAGLE RIVER    PTSUNNY   47  29  50 N17       29.93R
LAND O LAKES   PTSUNNY   45  31  58 N15G22    29.94S
PHILLIPS       MOSUNNY   53  32  45 N18       29.92S
TOMAHAWK       MOSUNNY   51  31  48 N9G17     29.92S
MEDFORD        SUNNY     55  32  41 N16       29.89S
MERRILL        PTSUNNY   54  34  47 N16G28    29.91R
$$

WIZ029-030-035-036-043>047-042300-
CENTRAL WISCONSIN

CITY           SKY/WX    TMP DP  RH WIND       PRES   REMARKS
WAUSAU         MOSUNNY   56  32  40 N16G26    29.87R
MOSINEE        MOSUNNY   55  32  41 N20G25    29.88R
MARSHFIELD     SUNNY     59  27  29 N17G30    29.87R
STEVENS POINT  SUNNY     55  31  39 N18G30    29.86R
WAUPACA        SUNNY     58  32  37 N17G23    29.85R
WAUTOMA        MOSUNNY   59  32  36 N18G24    29.83R
WISC RAPIDS    SUNNY     61  25  25 N18G26    29.86R
CAMP DOUGLAS   MOSUNNY   63  28  27 NW16G29   29.84R
$$

WIZ011>013-019>022-031-037>040-048>050-042300-
NORTHEAST WISCONSIN

CITY           SKY/WX    TMP DP  RH WIND       PRES   REMARKS
ANTIGO         MOSUNNY   50  33  53 N22G29    29.88R
SHAWANO        CLOUDY    55  34  44 N15G25    29.85S
OCONTO         CLOUDY    50  34  54 N13G22    29.86R
STURGEON BAY   MOSUNNY   46  32  57 N20G29    29.88R
GREEN BAY      CLOUDY    53  36  52 NE18      29.85R
MANITOWOC      CLOUDY    50  36  58 MISG      29.84R
APPLETON       PTSUNNY   54  30  40 N18G25    29.82R
CLINTONVILLE   CLOUDY    55  32  41 N15G22    29.85R
OSHKOSH        CLOUDY    54  35  48 N17G25    29.82R
$$

WIZ032>034-041-042-053>061-042300-
SOUTHWEST WISCONSIN

CITY           SKY/WX    TMP DP  RH WIND       PRES   REMARKS
LA CROSSE      SUNNY     65  28  24 NW21      29.87S
SPARTA         SUNNY     64  23  21 NW20G26   29.87R
VIROQUA        MOSUNNY   60  28  29 N15G28    29.87R
BOSCOBEL       SUNNY     65  28  24 NW17G29   29.86R
PRAIRIE DU CHI SUNNY     64  27  25 NW15G25   29.86S
PLATTEVILLE    MOSUNNY   62  32  32 N17G29    29.84R
$$

WIZ056-057-062-063-064-067-068-042300-
SOUTH CENTRAL WISCONSIN

CITY           SKY/WX    TMP DP  RH WIND       PRES   REMARKS
REEDSBURG      SUNNY     60  26  26 N22G29    29.83R
BARABOO/DELLS  MOSUNNY   62  22  21 N16G23    29.83R
LONE ROCK      SUNNY     63  26  24 N16G25    29.84R
MINERAL POINT  MOSUNNY   63  27  25 N17G25    29.83S
MADISON        PTSUNNY   59  31  34 N15G24    29.81S
MIDDLETON      PTSUNNY   62  31  31 N17G23    29.82S
WATERTOWN      CLOUDY    55  37  49 N16G28    29.81R
MONROE         MOSUNNY   59  30  33 N15G23    29.81R
JANESVILLE     PTSUNNY   59  34  38 N13G18    29.80S
$$

WIZ051-052-058>065-066-070>072-042300-
SOUTHEAST WISCONSIN

CITY           SKY/WX    TMP DP  RH WIND       PRES   REMARKS
MILWAUKEE      PTSUNNY   44  36  73 N12       29.82R
WAUKESHA       CLOUDY    52  34  50 N12G21    29.81S
MILWAUKEE/TIMM CLOUDY    50  34  53 NE12G25   29.82R
RACINE         CLOUDY    45  36  70 N17G24    29.83R
BURLINGTON     CLOUDY    53  36  53 N16       29.80S
KENOSHA        CLOUDY    48  38  68 NE13      29.81R
FOND DU LAC    CLOUDY    54  37  52 N14       29.83R
SHEBOYGAN      CLOUDY    45  37  73 NE14      29.83R
WEST BEND      CLOUDY    52  34  50 N12G22    29.81S
JUNEAU         CLOUDY    56  35  46 N20G26    29.82S
$$

LSZ147-162-042300-
LAKE SUPERIOR

STATION/POSITION TIME  TEMP    WIND        PRES    WAVE
                       AIR SEA DIR/SP/G            HT/PER
                 (UTC) (F)     (DEG/KT/KT) (MB)    (FT/S)
W MID LAKE BUOY  2150   39 37  220/  6/  8 1016.1S   1/ 4
DEVILS ISLAND    2200   44     130/ 10/ 11 1016.0R
SAXON HARBOR     2100   45      10/  5/  7 1015.2F
$$

LMZ867-665-643>646-042300-
LAKE MICHIGAN

STATION/POSITION TIME  TEMP    WIND        PRES    WAVE
                       AIR SEA DIR/SP/G            HT/PER
                 (UTC) (F)     (DEG/KT/KT) (MB)    (FT/S)
CHAMBERS ISLAND  2100   45     340/ 18/ 20 1010.8S
N MID LAKE BUOY  2150   40 39  330/ 16/ 19 1010.6R   4/ 5
NORTHPORT PIER   2105   41     340/ 23     1010.8S
ALGOMA LAKESHORE 2100          360/ 21/ 28   N/A
KEWAUNEE LAKESHO 2100   49     360/ 16/ 21 1009.3R
SHEBOYGAN LAKESH 2200   42      30/ 20/ 22 1010.8R
PORT WASHINGTON  2100   50      40/ 11/ 16 1010.2S
S MID LAKE BUOY  2150   42 40   10/ 23/ 29 1008.1R   8/ 8
KENOSHA   LAKESH 2200   44      20/ 19/ 22 1009.8R
$$

TC  - TEMPERATURE IN CELSIUS
VSB - VISIBILITY IN STATUTE MILES
WCI - WIND CHILL INDEX
HX  - HEAT INDEX





USA.gov is the U.S. government's official web portal to all federal, state and local government web resources and services.